Temperature
12 12 12 12 12 12 12 12 12 11 11 11 11 11 11 11 11 11 11 11 11 11 11 11 11 11 11 11 11 11 11 11 11 11 11 11 11 10
12 12 12 12 12 12 12 12 12 12 11 11 11 11 11 11 11 11 11 11 11 11 11 11 11 11 11 11 11 11 11 10 10 10 10 10 10 10
12 12 12 12 12 12 12 11 11 11 11 11 10 10 10 11 11 11 11 11 11 11 11 11 11 11 11 11 10 10 10 10 10 10 10 10 10 10
12 12 12 11 11 11 11 11 11 11 11 10 10 10 10 10 10 10 10 10 10 10 10 10 10 10 10 10 10 10 10 10 10 10 10 10 10 9
11 11 11 11 11 11 11 11 10 10 10 10 10 10 10 10 10 10 10 10 10 10 10 10 10 10 10 10 10 10 10 10 10 10 10 10 9 9
11 11 11 11 11 10 10 10 10 10 10 10 9 9 9 9 9 9 9 9 9 9 9 9 9 9 9 10 10 10 10 9 9 9 9 9 9 9
11 11 10 10 10 10 10 10 9 9 9 9 9 9 9 9 9 9 9 9 9 9 9 9 9 9 9 9 9 9 9 9 9 9 9 9 9 9
11 10 10 10 10 9 9 9 9 9 9 9 9 9 9 9 8 8 8 8 8 8 8 8 8 9 9 9 9 9 9 9 9 9 9 9 9 9
10 10 10 9 9 9 9 9 9 8 8 9 8 9 8 8 8 8 8 8 8 8 8 8 8 8 8 8 8 8 8 8 8 8 8 8 8 8
10 10 10 9 9 9 9 9 8 8 8 8 8 8 8 8 8 8 7 7 7 7 7 7 8 8 8 8 8 8 8 8 8 8 8 8 8 8
9 9 9 9 9 9 8 8 8 8 8 8 8 8 7 7 7 7 7 7 7 7 7 7 7 7 7 7 7 7 7 7 7 7 7 7 7 7
9 9 9 9 8 8 8 8 8 8 8 7 7 7 7 7 7 7 7 6 6 6 6 6 6 6 6 7 7 7 7 7 7 7 7 7 7 7
9 9 8 8 8 8 8 8 8 7 7 7 7 7 7 7 7 6 6 6 6 6 6 6 6 6 6 6 6 6 6 6 7 7 6 6 6 6
8 8 8 8 8 7 7 7 7 7 7 6 6 6 6 6 6 6 6 6 5 5 5 5 5 5 5 5 5 6 6 6 6 6 6 6 6 6
8 8 8 7 7 7 7 7 7 6 6 6 6 6 6 6 6 6 6 5 5 5 5 5 5 5 5 5 5 5 5 6 6 5 5 5 5 5
7 7 7 7 7 6 6 6 6 6 6 6 6 5 5 5 5 5 5 5 5 5 5 5 5 5 5 5 5 5 5 5 5 5 5 5 5 5
7 7 7 6 6 6 6 6 6 5 5 5 5 5 5 5 5 5 4 4 4 4 4 4 4 4 4 4 4 5 5 5 5 5 5 5 5 5
6 6 6 6 6 6 6 5 5 5 5 5 5 5 4 4 4 4 4 4 4 4 4 4 4 4 4 4 4 4 4 4 4 4 4 4 4 4
6 6 6 6 5 5 5 5 5 5 5 4 4 4 4 4 4 4 4 4 4 4 3 3 3 3 3 3 3 4 4 4 4 4 4 4 4 4
5 5 5 5 5 5 5 5 4 4 4 4 4 4 4 4 4 4 3 3 3 3 3 3 3 3 3 3 3 3 3 3 3 3 3 3 3 3
5 5 5 5 5 4 4 4 4 4 4 4 4 4 4 3 3 3 3 3 3 3 3 3 3 2 2 2 2 3 3 3 3 3 3 3 3 3
5 5 4 4 4 4 4 4 4 4 4 4 3 3 3 3 3 3 3 3 2 2 2 2 2 2 2 2 2 2 3 3 3 3 3 3 2 2
4 4 4 4 4 4 4 4 3 3 3 3 3 3 3 3 3 3 2 2 2 2 2 2 2 2 2 2 2 2 2 2 2 3 3 2 2 2
Wind_Speed
2 2 2 1 1 2 2 3 3 2 1 2 1 2 1 2 2 2 1 1 1 1 1 1 1 1 1 1 2 1 1 0 0 0 1 1 0 0
2 2 1 1 1 1 2 2 2 3 2 2 1 1 1 2 3 2 2 2 2 1 1 1 1 1 2 2 2 2 2 2 2 1 1 2 2 2
1 2 2 2 2 1 2 2 1 2 2 1 0 1 1 1 2 2 2 2 2 2 1 1 1 1 2 3 3 3 3 3 3 3 3 3 3 2
3 3 2 2 2 2 2 1 1 2 3 2 1 0 1 1 1 1 2 2 2 2 2 2 2 1 2 2 3 4 4 4 4 4 4 4 3 3
4 4 4 3 2 1 2 2 1 1 2 2 1 1 1 0 1 1 1 1 2 3 2 3 3 3 3 3 3 4 5 5 5 4 4 4 4 4
3 4 4 5 4 3 3 2 2 2 1 2 1 1 1 1 0 0 2 2 2 2 3 3 3 4 4 4 4 4 4 5 5 5 5 5 5 4
2 3 4 5 5 4 3 3 3 2 2 2 2 1 1 1 1 1 1 2 2 1 1 2 2 2 3 5 5 5 5 6 6 5 5 5 5 4
3 3 3 3 4 4 4 4 5 4 4 3 2 2 3 3 2 2 1 1 2 2 1 3 1 2 3 4 6 6 6 6 6 6 5 5 5 5
4 3 3 3 3 3 3 3 4 5 5 5 4 4 4 4 4 3 3 3 3 3 1 3 2 3 4 6 7 7 7 6 6 6 5 5 5 5
4 5 4 4 3 3 3 2 2 3 5 4 5 6 5 5 5 5 4 2 2 2 2 2 2 3 4 4 7 7 8 7 6 7 6 5 5 5
4 4 4 4 5 5 4 3 2 3 4 4 5 5 5 5 5 2 1 1 2 3 2 2 2 2 3 3 5 7 7 7 7 7 7 6 6 6
2 3 5 6 6 6 5 4 4 4 2 2 2 2 2 3 4 4 4 3 2 3 2 2 2 1 2 3 3 4 5 7 7 8 7 7 6 4
3 3 4 6 6 6 5 5 6 4 3 3 2 2 1 1 2 3 4 4 3 3 3 2 2 2 2 3 3 3 4 4 4 6 7 7 7 5
4 4 4 6 6 6 5 5 4 3 2 2 2 2 2 2 3 3 4 5 5 5 5 4 2 3 2 2 3 2 3 4 4 4 5 6 6 7
4 5 5 5 5 5 5 4 3 2 2 3 3 4 4 3 3 2 2 2 2 3 3 4 3 3 3 3 3 3 3 3 3 3 4 4 4 4
2 3 3 3 2 3 3 3 2 3 3 4 3 3 2 2 2 2 2 1 1 2 2 2 2 3 2 3 3 3 3 2 2 3 3 3 4 5
2 1 1 1 1 1 2 2 2 2 3 3 3 3 3 3 3 2 2 1 2 2 2 2 1 1 2 3 3 4 3 2 3 2 2 3 4 5
3 2 3 3 4 4 4 3 3 4 4 4 4 4 4 4 3 2 2 2 2 3 3 2 1 2 2 2 4 4 3 3 3 3 2 3 4 4
2 3 4 4 4 4 4 4 4 4 4 4 4 4 4 4 3 3 3 2 3 3 3 2 1 1 2 4 4 4 4 3 3 3 3 3 4 4
3 3 4 4 4 4 4 4 4 3 3 4 4 4 4 4 3 3 3 3 3 3 2 2 2 3 4 4 4 4 5 4 3 3 3 2 3 4
3 3 4 4 4 4 4 4 4 3 3 3 3 3 3 3 3 3 3 4 3 3 3 4 4 4 2 1 2 3 3 5 5 4 3 2 2 2
4 4 4 4 4 4 4 3 3 3 3 3 3 3 3 3 3 3 3 3 3 3 4 3 2 1 1 2 4 4 4 4 4 5 5 5 3 3
4 4 3 3 4 3 3 3 4 4 4 4 4 4 3 3 3 3 3 3 3 3 2 2 2 2 2 3 4 4 4 3 2 2 3 6 6 8
Wind_Direction
145 141 136 161 151 139 144 154 156 177 255 276 301 317 355 36 30 56 40 19 348 240 200 206 208 195 190 190 185 178 179 183 157 159 340 333 283 213
150 137 132 149 140 124 132 125 140 164 201 244 250 302 12 37 25 33 23 18 19 46 69 55 241 228 217 211 206 205 219 237 237 241 264 289 270 258
152 146 153 142 128 112 116 120 127 135 160 245 281 357 25 31 31 18 11 11 10 11 1 317 290 247 236 234 229 215 219 235 235 238 248 259 252 260
170 157 169 146 131 138 139 149 163 158 154 178 242 338 278 258 60 19 12 356 337 337 334 329 309 277 242 250 241 226 232 233 231 238 244 247 246 253
180 176 181 158 153 156 153 159 168 155 140 159 203 219 267 308 15 348 352 4 327 324 314 309 299 285 261 262 259 249 235 230 229 232 237 233 234 244
189 184 183 176 176 171 162 163 153 137 136 155 181 207 227 272 141 282 321 318 308 324 315 305 298 283 266 264 261 256 237 230 231 233 230 226 226 234
186 187 187 186 183 180 174 172 161 156 160 173 189 196 220 226 229 226 266 302 306 289 304 302 298 295 275 266 258 254 247 238 231 230 226 222 224 232
190 196 196 189 189 190 189 182 174 173 185 189 210 217 232 221 206 217 223 283 286 270 250 284 269 273 271 256 254 252 249 241 228 222 221 221 225 234
193 196 206 206 196 191 206 206 209 206 194 189 203 219 219 217 197 207 222 232 246 242 220 271 276 273 274 271 262 250 247 243 235 222 220 226 231 236
202 197 194 199 202 180 177 193 223 235 223 213 209 223 225 212 203 205 213 231 271 257 191 246 269 272 284 272 262 252 249 245 240 228 224 232 243 242
211 201 193 198 209 189 174 193 231 256 250 248 245 243 241 227 195 155 165 192 274 267 218 211 254 285 286 273 262 258 250 248 245 240 239 239 244 242
222 218 213 209 208 198 190 196 222 238 229 245 265 264 243 224 209 190 190 204 245 254 226 199 240 284 292 273 263 263 253 251 247 242 242 247 248 238
215 225 231 219 215 214 209 210 226 220 200 206 223 245 252 238 219 204 198 198 213 241 225 192 222 229 232 277 284 261 246 247 243 243 243 246 245 231
217 224 226 217 218 222 226 232 223 203 179 185 209 230 237 245 246 236 227 222 223 231 223 199 211 215 223 263 272 273 263 250 237 235 246 250 246 241
226 224 223 218 218 226 235 224 205 186 182 203 221 231 236 234 229 243 252 240 260 268 239 226 220 221 213 233 254 261 281 265 228 221 227 234 234 231
234 231 221 208 208 221 227 230 220 206 201 211 223 231 232 225 226 225 232 241 274 303 309 281 222 203 232 249 244 260 254 246 242 236 230 244 251 238
171 139 148 170 205 230 239 239 233 223 220 213 215 224 232 232 236 230 215 225 220 239 281 313 326 285 235 228 248 251 249 260 248 228 221 245 252 245
155 187 209 215 219 223 226 234 235 231 226 218 217 222 225 228 231 224 207 211 234 240 249 262 299 336 342 312 239 236 241 242 247 237 222 228 252 259
184 212 222 225 228 227 226 227 232 230 220 218 221 222 223 224 223 224 217 219 235 243 248 238 235 230 266 282 280 240 230 245 234 237 233 229 241 253
214 222 229 229 227 229 228 228 228 225 221 219 218 218 218 217 218 222 222 219 229 242 252 246 233 233 237 252 263 273 250 228 225 235 248 259 261 270
231 231 230 229 230 232 232 228 224 224 223 217 216 214 213 208 218 222 222 226 225 228 239 248 252 254 254 267 281 280 275 255 238 231 228 240 266 274
235 236 238 235 230 229 231 225 219 221 219 216 214 214 211 206 215 221 217 223 230 235 246 265 277 265 248 251 267 275 286 292 282 273 248 233 213 222
237 237 236 237 234 228 223 219 220 225 219 213 210 208 202 206 213 215 220 225 234 243 254 267 278 268 253 253 264 271 278 283 285 295 295 286 270 268
Height
1528 1529 1529 1530 1530 1531 1531 1532 1532 1531 1532 1532 1532 1533 1532 1532 1532 1531 1531 1531 1530 1530 1529 1529 1529 1528 1528 1528 1529 1529 1529 1529 1529 1530 1530 1530 1530 1530
1526 1527 1528 1528 1529 1529 1529 1530 1530 1530 1529 1530 1530 1530 1530 1530 1530 1530 1529 1529 1529 1528 1527 1527 1527 1527 1527 1527 1527 1527 1527 1527 1527 1528 1528 1528 1528 1528
1524 1525 1525 1526 1526 1527 1527 1527 1528 1528 1527 1528 1528 1528 1528 1528 1528 1528 1527 1527 1526 1526 1525 1525 1525 1525 1525 1524 1525 1525 1525 1525 1525 1525 1525 1526 1526 1526
1521 1522 1523 1523 1523 1524 1524 1524 1525 1525 1525 1524 1525 1525 1526 1526 1526 1525 1525 1524 1524 1524 1523 1523 1523 1523 1523 1522 1522 1522 1523 1523 1523 1523 1523 1523 1523 1523
1519 1519 1520 1520 1520 1521 1521 1522 1522 1522 1523 1522 1522 1523 1523 1523 1523 1523 1522 1522 1522 1521 1521 1521 1520 1520 1520 1520 1520 1520 1520 1520 1520 1520 1520 1520 1520 1520
1516 1517 1517 1517 1518 1518 1518 1519 1519 1520 1520 1520 1520 1520 1520 1520 1520 1520 1519 1519 1519 1518 1518 1518 1518 1517 1517 1517 1517 1517 1517 1517 1517 1517 1517 1517 1517 1517
1513 1513 1514 1514 1515 1516 1516 1516 1516 1516 1516 1516 1517 1517 1517 1517 1517 1517 1516 1516 1515 1515 1515 1515 1515 1514 1514 1514 1514 1514 1514 1514 1514 1514 1514 1514 1514 1514
1509 1510 1510 1511 1512 1512 1513 1513 1514 1513 1513 1513 1513 1513 1513 1514 1514 1514 1513 1513 1512 1513 1512 1511 1512 1511 1511 1511 1510 1510 1510 1510 1510 1511 1511 1511 1511 1511
1506 1506 1507 1507 1508 1509 1509 1510 1510 1510 1511 1511 1510 1510 1511 1511 1511 1510 1510 1510 1509 1509 1509 1507 1508 1507 1507 1507 1507 1507 1507 1506 1506 1507 1507 1507 1507 1507
1502 1502 1503 1503 1504 1505 1505 1505 1506 1506 1507 1507 1507 1507 1508 1508 1508 1508 1507 1507 1506 1506 1506 1504 1504 1503 1503 1503 1503 1503 1503 1503 1502 1503 1503 1503 1503 1503
1498 1499 1499 1499 1500 1501 1501 1501 1501 1502 1503 1503 1503 1504 1504 1504 1504 1504 1503 1503 1502 1501 1502 1501 1500 1499 1499 1499 1499 1499 1498 1498 1498 1498 1499 1499 1499 1499
1494 1495 1495 1496 1496 1497 1497 1497 1497 1497 1498 1498 1499 1499 1500 1500 1500 1500 1500 1499 1498 1498 1498 1498 1497 1496 1495 1494 1494 1494 1494 1494 1494 1495 1495 1495 1495 1495
1490 1490 1491 1492 1492 1493 1493 1493 1493 1493 1494 1494 1494 1495 1495 1495 1495 1496 1496 1496 1495 1494 1495 1494 1493 1493 1492 1490 1490 1490 1489 1489 1490 1490 1491 1491 1491 1491
1486 1486 1487 1488 1488 1488 1489 1489 1489 1490 1490 1490 1490 1490 1490 1490 1491 1491 1492 1491 1491 1491 1491 1490 1489 1489 1488 1487 1486 1485 1485 1485 1485 1485 1486 1486 1487 1487
1482 1482 1483 1483 1484 1484 1484 1485 1485 1485 1485 1485 1485 1485 1486 1486 1486 1487 1487 1487 1487 1486 1486 1486 1485 1485 1484 1483 1482 1481 1480 1480 1480 1481 1481 1482 1482 1482
1478 1478 1479 1479 1479 1480 1480 1480 1480 1481 1481 1481 1481 1481 1481 1481 1481 1482 1482 1482 1481 1481 1481 1481 1481 1481 1480 1479 1479 1477 1477 1477 1476 1476 1477 1477 1478 1478
1473 1473 1473 1474 1474 1474 1474 1475 1475 1476 1476 1476 1476 1476 1476 1476 1477 1477 1477 1477 1477 1476 1476 1476 1477 1476 1476 1475 1474 1473 1473 1473 1473 1472 1472 1472 1473 1473
1469 1468 1468 1469 1469 1469 1469 1470 1470 1470 1471 1471 1471 1471 1471 1471 1472 1472 1472 1473 1472 1472 1472 1472 1472 1471 1471 1470 1471 1469 1469 1468 1468 1468 1468 1468 1468 1469
1464 1464 1464 1464 1464 1464 1464 1465 1465 1465 1466 1466 1466 1466 1466 1467 1467 1467 1467 1468 1468 1468 1468 1468 1468 1467 1466 1465 1465 1466 1465 1464 1464 1464 1464 1464 1463 1464
1459 1459 1459 1459 1459 1459 1459 1460 1460 1460 1460 1460 1460 1461 1461 1462 1462 1462 1463 1463 1463 1463 1463 1463 1463 1463 1463 1462 1461 1460 1461 1461 1460 1460 1459 1459 1459 1460
1454 1455 1455 1455 1454 1454 1454 1455 1455 1455 1455 1455 1455 1455 1456 1457 1457 1458 1458 1458 1459 1458 1458 1459 1459 1460 1459 1459 1457 1456 1456 1456 1456 1456 1455 1455 1454 1454
1450 1450 1450 1450 1450 1450 1450 1449 1450 1450 1450 1450 1451 1451 1451 1452 1453 1453 1453 1454 1454 1454 1455 1455 1455 1455 1455 1454 1453 1452 1451 1451 1451 1451 1452 1451 1451 1450
1446 1446 1445 1445 1445 1445 1445 1445 1445 1445 1446 1446 1446 1447 1447 1448 1448 1449 1449 1449 1450 1450 1450 1450 1451 1451 1450 1450 1449 1448 1448 1447 1447 1447 1447 1447 1448 1448